Regional Weather Roundup
Issued by NWS

Home | Current Version | Previous Version | Text Only | Print | Product List | Glossary On
Versions: 1 2 3 4 5 6 7 8 9 10 11 12 13 14 15 16 17 18 19 20 21 22 23 24 25 26 27
000
ASUS45 KREV 211210
RWRNV
NEVADA REGIONAL WEATHER ROUNDUP
NATIONAL WEATHER SERVICE RENO NV
500 AM PDT MON APR 21 2014

NOTE: "FAIR" INDICATES FEW OR NO CLOUDS BELOW 12,000 FEET WITH NO
SIGNIFICANT WEATHER AND/OR OBSTRUCTIONS TO VISIBILITY.

NVZ001-003-004-211300-
WESTERN NEVADA

CITY           SKY/WX    TMP DP  RH WIND       PRES   REMARKS
RENO           PTCLDY    45  26  47 CALM      30.13F
6HR MIN TEMP:  45; 6HR MAX TEMP:  59;

CARSON CITY    FAIR      41  21  45 CALM      30.16S
MINDEN         CLEAR     36  25  64 CALM      30.17S
SLIDE MTN        N/A     37  19  48 S10         N/A
FALLON         CLEAR     38  19  46 CALM      30.12S
6HR MIN TEMP:  37; 6HR MAX TEMP:  52;

LOVELOCK       CLEAR     36  11  35 CALM      30.12F
6HR MIN TEMP:  33; 6HR MAX TEMP:  47;

HAWTHORNE      CLEAR     45  19  36 CALM      30.14S
$$

NVZ002-CAZ072-073-211300-
NORTHERN AND CENTRAL SIERRA

CITY           SKY/WX    TMP DP  RH WIND       PRES   REMARKS
S. LAKE TAHOE  CLEAR     32  26  78 S5        30.20S
6HR MIN TEMP:  32; 6HR MAX TEMP:  43;

TRUCKEE        FOG       28  27  93 CALM      30.20S VSB 1/4
SQUAW VLY 8000   N/A     41  28  60 VRB10       N/A
SUSANVILLE     CLEAR     37  32  81 W6        30.11F
BLUE CANYON    PTCLDY    52  27  38 E3        30.17F
MAMMOTH LAKES  FAIR      32  19  59 CALM      30.24F
BRIDGEPORT     FAIR      27  18  69 CALM      30.22F
$$

NVZ030-031-036-211300-
NORTHERN NEVADA

CITY           SKY/WX    TMP DP  RH WIND       PRES   REMARKS
ELKO           MOCLDY    32  17  54 CALM      30.21S
6HR MIN TEMP:  28; 6HR MAX TEMP:  46;

WINNEMUCCA     PTCLDY    30  15  53 SE9       30.16F
6HR MIN TEMP:  30; 6HR MAX TEMP:  50;

WENDOVER       PTCLDY    45  19  36 W5        30.21S
$$

NVZ035-037-211300-
CENTRAL NEVADA

CITY           SKY/WX    TMP DP  RH WIND       PRES   REMARKS
ELY            PTCLDY    32  20  61 VRB3      30.25S
6HR MIN TEMP:  31; 6HR MAX TEMP:  51;

EUREKA           N/A     36  21  54 S5        30.21F
6HR MIN TEMP:  33; 6HR MAX TEMP:  40;

$$

NVZ013-014-211300-
SOUTH CENTRAL NEVADA

CITY           SKY/WX    TMP DP  RH WIND       PRES   REMARKS
TONOPAH        CLEAR     48  16  27 N8        30.17S
6HR MIN TEMP:  48; 6HR MAX TEMP:  59;

$$

NVZ017-020-022-211300-
SOUTHERN NEVADA

CITY           SKY/WX    TMP DP  RH WIND       PRES   REMARKS
LAS VEGAS      CLEAR     71  34  25 SW10      29.96S
6HR MIN TEMP:  70; 6HR MAX TEMP:  80;

N. LAS VEGAS   CLEAR     65  30  27 NW7       30.00S
6HR MIN TEMP:  65; 6HR MAX TEMP:  80;

NELLIS AFB     CLEAR     68  35  29 NE9       29.99S
6HR MIN TEMP:  67; 6HR MAX TEMP:  80;

HENDERSON      HVY RAIN  67  32  27 SW6       30.03S
6HR MIN TEMP:  67; 6HR MAX TEMP:  76; 6HR PCP: TRACE;

MERCURY        CLEAR     61  25  25 NE5       30.04S
6HR MIN TEMP:  58; 6HR MAX TEMP:  67;

$$



USA.gov is the U.S. government's official web portal to all federal, state and local government web resources and services.